Home   Weather   Suzuka   Past weeks

Flag for Japan Past Weather in Suzuka, Japan — Yesterday and Last 2 Weeks

Now
75 °F

Mild.


Feels Like: 74 °F
Forecast: 71 / 78 °F
Wind: 2 mph from West

Location: Tsu

Current Time: Sep 29, 2016 at 7:16:35 AM

Latest Report: Sep 29, 2016 at 6:00 AM


Visibility: N/A

Pressure: 29.86 "Hg

Humidity: 92%

Dew Point: 72 °F

Location of SuzukaLocation

Past Weather in Suzuka — Graph

°F

Suzuka Temperature Yesterday

Maximum temperature yesterday: 81 °F (at 12:00 PM)
Minimum temperature yesterday: 75 °F (at 11:00 PM)
Average temperature yesterday: 77 °F

High & Low Weather Summary for the Past Weeks

 TemperatureHumidityPressure
High84 °F (Sep 14, 11:00 AM)92% (Sep 23, 3:00 AM)30.14 "Hg (Sep 23, 3:00 AM)
Low68 °F (Sep 24, 6:00 AM)51% (Sep 15, 2:00 PM)29.23 "Hg (Sep 20, 4:00 PM)
Average75 °F79%29.96 "Hg
* Reported Sep 14 6:00 AM — Sep 29 6:00 AM, Suzuka, Weather by CustomWeather, © 2016

Note: Actual official high and low records may vary slightly from our data, if they occured in-between our weather recording intervals... More about our weather records

Advertising

Suzuka Weather History for the Previous 24 Hours

Scroll right to see more
 ConditionsComfort  
Time TempWeatherWind HumidityBarometerVisibility
6:00 AM
Thu, Sep 29
75 °FMild.2 mph92%29.86 "HgN/A
5:00 AM75 °FMild.1 mph92%29.86 "HgN/A
4:00 AM74 °FMild.2 mph92%29.87 "HgN/A
3:00 AM74 °FMild.6 mph91%29.88 "HgN/A
2:00 AM75 °FMild.2 mph90%29.88 "HgN/A
1:00 AM76 °FMild.1 mph89%29.89 "HgN/A
12:00 AM75 °FMild.1 mph89%29.91 "HgN/A
11:00 PM
Wed, Sep 28
75 °FMild.2 mph91%29.93 "HgN/A
10:00 PM75 °FMild.1 mph90%29.93 "HgN/A
9:00 PM75 °FSprinkles. Overcast.5 mph89%29.94 "Hg5 mi
8:00 PM75 °FMild.2 mph88%29.93 "HgN/A
7:00 PM76 °FMild.3 mph87%29.93 "HgN/A
6:00 PM76 °FMild.3 mph86%29.92 "HgN/A
5:00 PM78 °FWarm.3 mph82%29.92 "HgN/A
4:00 PM78 °FWarm.5 mph84%29.91 "HgN/A
3:00 PM80 °FOvercast.8 mph74%29.90 "Hg9 mi
2:00 PM80 °FWarm.5 mph86%29.88 "HgN/A
1:00 PM79 °FWarm.6 mph85%29.89 "HgN/A
12:00 PM81 °FWarm.6 mph80%29.90 "HgN/A
11:00 AM80 °FWarm.6 mph78%29.92 "HgN/A
10:00 AM79 °FWarm.5 mph78%29.93 "HgN/A
9:00 AM79 °FSprinkles. Overcast.3 mph81%29.96 "Hg5 mi
8:00 AM78 °FWarm.2 mph84%29.96 "HgN/A
7:00 AM77 °FMild.2 mph86%29.95 "HgN/A
Weather by CustomWeather, © 2016

See weather overviewHow to use our weather pages